Weather History for KRBG - January, 2014

Change the Weather History Date:

Thursday, January 2, 2014

  Actual Average Record
Temperature  
Mean Temperature 39 °F 42 °F  
Max Temperature 45 °F 48 °F 63 °F (2002)
Min Temperature 33 °F 36 °F 18 °F (1942)
Degree Days  
Heating Degree Days 26 23  
Month to date heating degree days 54 46  
Since 1 July heating degree days 1837 1686  
Cooling Degree Days 0 0  
Month to date cooling degree days 0 0  
Year to date cooling degree days 0 0  
Moisture  
Dew Point 36 °F    
Average Humidity 92    
Maximum Humidity 100    
Minimum Humidity 83    
Precipitation  
Precipitation 0.00 in 0.21 in 2.10 in (1933)
Month to date precipitation 0.00 0.44  
Year to date precipitation 0.00 0.44  
Sea Level Pressure  
Sea Level Pressure 30.23 in    
Wind  
Wind Speed 1 mph (SSW)    
Max Wind Speed 6 mph    
Max Gust Speed 8 mph    
Visibility 3 miles    
Events Fog    
T = Trace of Precipitation, MM = Missing Value Source: NWS Daily Summary

Daily Weather History Graph

Daily Weather History Graph

Search for Another Location

Airport or City:

Trip Planner

Search our weather history database for the weather conditions in past years. The results will help you decide how hot, cold, wet, or windy it might be!

Date:

Astronomy

Jan. 02, 2014 Rise Set
Actual Time 7:45 AM PST 4:49 PM PST
Civil Twilight 7:13 AM PST 5:22 PM PST
Nautical Twilight 6:37 AM PST 5:57 PM PST
Astronomical Twilight 6:02 AM PST 6:32 PM PST
Moon 8:28 AM PST (1/2) 6:57 PM PST (1/2)
Length of Visible Light 10h 08m
Length of Day
9h 04m
Waxing Crescent, 3% of the Moon is Illuminated
Jan 2
Waxing Crescent
Jan 7
First Quarter
Jan 15
Full
Jan 23
Last Quarter
Jan 30
New

Hourly Weather History & Observations

Time (PST) Temp. Windchill Dew Point Humidity Pressure Visibility Wind Dir Wind Speed Gust Speed Precip Events Conditions
12:53 AM 34.0 °F - 33.1 °F 96% 30.29 in 0.2 mi Calm Calm - N/A Fog Fog
1:53 AM 34.0 °F 31.0 °F 34.0 °F 100% 30.28 in 0.2 mi Variable 3.5 mph - N/A Fog Fog
2:53 AM 33.1 °F - 33.1 °F 100% 30.29 in 0.2 mi Calm Calm - N/A Fog Fog
3:53 AM 34.0 °F - 33.1 °F 96% 30.29 in 0.2 mi Calm Calm - N/A Fog Fog
4:37 AM 34.0 °F - 34.0 °F 100% 30.27 in 0.5 mi Calm Calm - N/A Fog Fog
4:53 AM 34.0 °F - 34.0 °F 100% 30.28 in 0.2 mi Calm Calm - N/A Fog Fog
5:53 AM 34.0 °F - 34.0 °F 100% 30.27 in 0.2 mi Calm Calm - N/A Fog Fog
6:53 AM 34.0 °F - 33.1 °F 96% 30.27 in 0.2 mi Calm Calm - N/A Fog Fog
7:27 AM 34.0 °F 31.0 °F 33.1 °F 96% 30.24 in 0.5 mi SE 3.5 mph - N/A Fog Fog
7:53 AM 34.0 °F - 34.0 °F 100% 30.26 in 1.0 mi Calm Calm - N/A   Mist
8:02 AM 34.0 °F - 34.0 °F 100% 30.24 in 0.8 mi Calm Calm - N/A   Overcast
8:17 AM 34.0 °F 31.0 °F 34.0 °F 100% 30.24 in 0.2 mi SSE 3.5 mph - N/A Fog Fog
8:25 AM 34.0 °F - 34.0 °F 100% 30.25 in 0.5 mi Calm Calm - N/A Fog Fog
8:53 AM 35.1 °F - 34.0 °F 96% 30.27 in 0.5 mi Calm Calm - N/A Fog Fog
9:31 AM 34.0 °F 31.0 °F 34.0 °F 100% 30.26 in 0.2 mi South 3.5 mph - N/A Fog Fog
9:53 AM 34.0 °F - 34.0 °F 100% 30.28 in 0.2 mi Calm Calm - N/A Fog Fog
10:13 AM 35.1 °F - 34.0 °F 96% 30.26 in 0.8 mi Calm Calm - N/A   Mist
10:21 AM 35.1 °F - 35.1 °F 100% 30.25 in 1.5 mi Calm Calm - N/A   Overcast
10:53 AM 36.0 °F - 35.1 °F 97% 30.27 in 1.0 mi Calm Calm - N/A   Overcast
11:10 AM 36.0 °F - 36.0 °F 100% 30.24 in 3.0 mi Calm Calm - N/A   Overcast
11:53 AM 39.0 °F - 37.0 °F 93% 30.22 in 8.0 mi Calm Calm - N/A   Scattered Clouds
12:53 PM 42.1 °F 39.2 °F 39.0 °F 89% 30.19 in 9.0 mi SW 4.6 mph - N/A   Clear
1:53 PM 43.0 °F 41.3 °F 39.0 °F 86% 30.18 in 8.0 mi SW 3.5 mph - N/A   Clear
2:53 PM 44.1 °F - 39.9 °F 85% 30.17 in 9.0 mi Calm Calm - N/A   Clear
3:53 PM 45.0 °F - 39.9 °F 82% 30.16 in 9.0 mi Calm Calm - N/A   Clear
4:53 PM 44.1 °F - 39.9 °F 85% 30.16 in 9.0 mi Calm Calm - N/A   Clear
5:53 PM 43.0 °F - 39.9 °F 89% 30.15 in 8.0 mi Calm Calm - N/A   Mostly Cloudy
6:53 PM 43.0 °F - 39.9 °F 89% 30.15 in 9.0 mi Calm Calm - N/A   Clear
7:53 PM 42.1 °F - 39.9 °F 92% 30.15 in 8.0 mi Calm Calm - N/A   Clear
8:53 PM 43.0 °F 41.3 °F 39.9 °F 89% 30.16 in 6.0 mi WNW 3.5 mph - N/A   Clear
9:53 PM 41.0 °F - 39.0 °F 93% 30.15 in 6.0 mi Calm Calm - N/A   Clear
10:53 PM 39.0 °F - 37.9 °F 96% 30.16 in 5.0 mi Calm Calm - N/A   Scattered Clouds
11:53 PM 39.0 °F - 37.9 °F 96% 30.17 in 4.0 mi Calm Calm - N/A   Clear